N7075J KHHF-KOKC

Flight info

Callsign N7075J
Flight time N/A
Altitude 9000
Route ROLLS
Aircraft VELO/L-VGD/C

Departure

Time 2026-04-28 01:10
Airport Hemphill County Airport (KHHF)

Arrival

Time N/A
Airport OKC Will Rogers World Airport (KOKC)
Time Latitude Longitude Altitude Speed Heading
2026-04-28 01:03 35.89553 -100.40153 2383 ft 0 kts 265°
2026-04-28 01:08 35.89562 -100.40156 2383 ft 6 kts 358°
2026-04-28 01:09 35.89607 -100.40207 2382 ft 15 kts 275°
2026-04-28 01:09 35.89595 -100.40290 2382 ft 0 kts 181°
2026-04-28 01:09 35.89406 -100.40310 2390 ft 73 kts 183°
2026-04-28 01:09 35.88822 -100.40294 2625 ft 94 kts 161°
2026-04-28 01:10 35.88327 -100.39791 3107 ft 106 kts 101°
2026-04-28 01:10 35.88699 -100.38976 3388 ft 135 kts 44°
2026-04-28 01:10 35.89386 -100.37986 3509 ft 166 kts 65°
2026-04-28 01:10 35.89414 -100.36552 3748 ft 180 kts 105°
2026-04-28 01:11 35.88793 -100.35145 4002 ft 189 kts 116°
2026-04-28 01:11 35.88279 -100.33676 4260 ft 188 kts 103°
2026-04-28 01:11 35.87980 -100.32085 4513 ft 191 kts 98°
2026-04-28 01:11 35.87714 -100.30464 4765 ft 193 kts 98°
2026-04-28 01:12 35.87426 -100.28843 5003 ft 194 kts 99°
2026-04-28 01:12 35.87127 -100.27218 5249 ft 197 kts 100°
2026-04-28 01:12 35.86824 -100.25561 5492 ft 197 kts 100°
2026-04-28 01:12 35.86524 -100.23902 5739 ft 198 kts 101°
2026-04-28 01:13 35.86224 -100.22252 5974 ft 199 kts 101°
2026-04-28 01:13 35.85616 -100.18918 6453 ft 200 kts 102°
2026-04-28 01:13 35.85308 -100.17232 6681 ft 202 kts 104°
2026-04-28 01:14 35.84997 -100.15536 6921 ft 204 kts 104°
2026-04-28 01:14 35.84689 -100.13845 7154 ft 205 kts 105°
2026-04-28 01:14 35.84373 -100.12117 7390 ft 207 kts 105°
2026-04-28 01:14 35.84060 -100.10409 7622 ft 207 kts 106°
2026-04-28 01:15 35.83739 -100.08660 7863 ft 209 kts 107°
2026-04-28 01:15 35.83417 -100.06905 8110 ft 210 kts 107°
2026-04-28 01:15 35.83095 -100.05149 8354 ft 214 kts 107°
2026-04-28 01:15 35.82762 -100.03336 8603 ft 216 kts 108°
2026-04-28 01:16 35.82430 -100.01534 8848 ft 218 kts 108°
2026-04-28 01:16 35.82087 -99.99677 8944 ft 227 kts 108°